SCP
2 3 4 4 4 5 7 8 6 5 3 3 3 3 3 3 3 4 3 2 1 0 0 0 0 0 0 0 0 0 0 0 0 0 0 1 0 0
3 3 3 3 4 4 6 7 6 4 3 3 2 3 3 3 3 3 3 2 1 1 0 0 0 0 0 0 0 0 0 0 0 0 0 0 0 0
3 3 3 3 4 4 4 5 4 3 3 2 2 3 3 3 3 3 3 2 2 1 0 0 0 0 0 0 0 0 0 0 0 0 0 0 0 0
4 4 4 5 4 4 4 4 4 3 3 3 3 3 4 4 3 3 2 2 2 1 0 0 0 0 0 0 0 0 0 0 0 0 0 0 0 0
5 5 6 6 6 6 5 5 5 4 5 4 4 4 5 5 4 3 2 2 2 1 1 0 0 0 0 0 0 0 0 0 0 0 0 0 0 0
7 7 7 8 8 8 7 7 7 7 6 6 6 6 6 5 4 3 2 2 2 2 1 1 1 0 0 0 0 0 0 0 0 0 0 0 0 0
8 7 7 7 7 7 8 8 9 8 8 8 8 8 7 6 4 3 2 3 3 2 2 2 1 1 1 0 0 1 0 0 0 0 0 0 0 0
8 7 7 6 6 6 6 6 7 8 8 9 9 9 8 6 4 3 2 3 3 2 2 2 1 1 1 1 1 1 0 0 0 0 0 0 0 0
6 6 6 6 6 6 5 5 5 6 7 8 9 9 7 5 4 3 3 3 2 2 2 2 1 1 1 1 1 0 0 0 0 0 0 0 0 0
5 5 6 6 6 7 8 8 7 6 5 6 7 7 5 4 4 3 3 3 2 2 2 2 2 1 1 1 1 0 0 0 0 0 0 0 0 0
5 5 5 5 6 7 9 10 9 6 3 3 3 3 2 2 3 3 3 3 2 2 2 2 2 2 2 1 1 1 0 0 0 0 0 0 0 0
5 5 4 4 4 5 7 8 7 5 3 3 2 2 1 1 2 2 3 3 2 2 2 2 2 2 2 2 2 1 1 0 0 0 0 0 0 0
5 5 4 3 2 3 4 5 4 4 4 4 4 3 2 2 2 2 3 3 3 3 3 3 3 2 2 2 2 2 1 1 1 0 0 0 0 0
6 5 4 2 1 1 2 2 3 3 4 5 5 4 3 3 3 3 3 4 4 3 3 3 3 3 2 2 3 2 2 1 1 1 0 0 0 0
6 5 4 2 1 1 1 1 2 3 5 5 5 4 3 3 3 3 3 4 4 4 3 3 3 3 2 2 3 2 2 1 1 1 0 0 0 0
4 5 4 2 2 2 2 2 3 4 6 7 6 4 4 4 4 4 3 3 4 4 3 3 3 3 3 2 2 2 2 1 1 1 0 0 0 0
3 4 5 4 4 5 5 4 4 5 7 8 8 6 5 4 4 4 4 3 3 3 3 3 3 3 3 2 2 2 2 2 1 1 1 0 0 0
3 4 6 6 6 6 6 6 5 5 7 9 9 7 6 5 5 5 4 4 3 3 3 3 3 3 2 2 1 2 2 2 1 1 1 1 1 1
4 5 6 6 6 6 6 6 5 5 6 7 8 7 6 6 5 5 5 4 3 3 3 3 3 3 2 1 1 1 2 2 2 2 2 2 1 1
4 5 6 6 6 6 5 5 5 5 5 6 6 6 6 6 6 5 5 4 4 3 3 3 3 3 2 2 2 2 1 1 2 3 3 2 1 1
5 5 6 6 5 5 5 5 5 5 5 6 5 5 5 5 6 6 6 5 5 4 4 3 3 2 2 2 2 2 2 1 2 2 2 2 1 1
5 5 5 4 4 4 4 4 4 4 5 6 6 6 6 6 7 7 7 6 6 5 4 3 3 2 3 2 2 2 2 1 1 1 1 1 1 1
5 4 4 4 3 3 3 4 4 4 5 7 7 7 6 7 7 8 7 7 6 5 4 3 3 3 3 2 2 2 2 2 1 1 1 0 0 0
Wind_Speed
6 6 6 4 4 4 4 5 5 4 3 3 3 2 2 1 2 2 3 5 4 4 3 4 4 3 3 2 2 2 2 1 1 1 1 1 2 3
4 5 5 5 4 4 4 4 5 5 4 1 2 2 2 2 3 3 3 6 5 4 4 4 4 4 3 3 3 2 2 2 1 1 1 1 1 1
6 6 6 6 4 4 4 5 5 5 5 3 2 2 3 3 3 3 4 4 5 6 5 4 4 4 3 3 3 3 3 2 2 2 2 2 2 1
7 7 7 6 6 5 4 5 4 4 5 5 3 3 4 4 4 4 3 3 3 8 7 5 4 4 3 3 3 3 3 3 3 3 3 3 3 3
7 7 7 7 7 5 6 5 5 5 5 5 4 3 3 3 5 4 4 3 4 7 8 7 5 4 4 3 3 3 2 2 3 3 3 3 3 3
7 7 7 8 7 7 6 6 5 5 5 6 4 4 4 4 4 4 4 4 4 4 4 5 7 7 6 4 4 3 3 2 2 2 2 2 3 3
7 7 7 6 6 6 5 5 6 5 5 5 5 4 4 4 4 4 4 3 3 3 3 4 5 5 5 6 5 4 3 3 3 2 1 2 2 2
7 7 7 7 6 7 6 5 6 7 6 6 5 5 5 5 4 4 4 3 3 3 3 3 3 3 3 2 5 5 5 4 3 2 2 2 1 1
7 6 6 5 7 7 7 7 8 7 7 8 7 6 5 5 5 5 4 4 3 3 4 4 3 3 3 4 7 6 6 5 4 3 3 2 2 2
7 7 7 6 5 5 6 7 7 7 7 8 7 6 4 3 5 6 5 5 4 3 3 4 3 3 3 4 9 7 7 6 5 4 4 3 3 3
7 7 7 7 5 5 7 7 7 6 5 5 4 3 2 3 4 4 5 5 5 4 4 4 3 3 3 4 7 10 9 8 7 6 5 4 3 5
6 6 6 6 5 6 7 7 7 6 5 5 5 5 6 6 6 6 5 5 4 4 4 4 3 3 3 3 4 6 7 8 8 8 7 5 4 3
5 5 4 6 7 8 8 7 7 6 6 6 6 6 6 6 6 6 5 5 4 4 4 5 4 4 4 3 3 4 4 4 5 6 8 8 6 4
5 5 3 5 7 8 7 6 5 6 6 5 5 6 6 5 5 5 5 4 3 3 2 4 4 4 4 4 3 3 4 4 3 3 3 7 7 7
4 3 2 4 6 7 8 7 7 6 5 5 5 5 4 4 4 5 5 4 4 3 3 4 5 4 5 4 3 3 3 3 3 3 3 3 3 3
5 3 5 7 6 5 5 7 6 5 5 5 5 4 4 4 5 5 5 5 5 4 4 5 5 6 5 4 4 3 3 3 3 3 2 3 3 3
2 4 4 4 5 5 4 4 4 5 5 4 4 4 4 4 4 5 4 5 5 5 5 5 5 5 5 5 5 4 4 4 3 3 4 4 3 3
4 5 5 5 5 5 5 4 4 4 4 4 4 4 4 4 5 5 5 6 5 5 4 4 4 5 6 5 4 5 4 4 3 4 4 4 4 3
6 5 5 5 5 4 4 4 5 5 4 4 4 5 5 5 5 5 6 5 5 5 4 4 5 5 6 6 5 5 5 4 4 4 4 4 4 3
6 5 5 5 4 4 4 4 4 4 5 5 5 5 5 5 5 6 6 6 5 5 5 5 5 5 5 4 3 4 7 5 4 4 4 4 3 2
6 5 4 5 4 4 4 4 4 5 5 5 5 6 6 6 5 5 5 5 6 5 6 5 3 4 5 4 5 4 4 5 3 3 3 4 3 3
5 5 4 4 4 3 4 4 5 4 5 5 5 5 5 5 5 6 5 5 5 5 5 3 3 5 6 6 6 5 4 4 5 5 4 3 2 3
4 4 4 4 4 4 4 5 6 5 4 4 4 4 4 4 4 4 4 5 5 5 5 4 3 4 5 6 6 4 5 5 4 5 4 5 5 4
Wind_Direction
240 231 240 238 240 245 247 253 263 263 242 193 206 188 205 164 152 174 137 120 129 128 118 110 102 98 92 88 77 65 58 50 27 347 315 275 267 265
240 243 242 243 236 237 239 242 251 262 269 218 198 182 188 203 166 186 138 137 126 130 124 117 107 102 94 89 83 76 72 68 53 28 18 357 338 302
235 230 231 244 243 237 232 234 236 242 250 253 227 177 193 220 189 193 183 189 142 142 138 129 119 109 100 90 83 77 69 61 55 51 49 37 23 22
234 233 233 225 228 244 241 238 234 236 242 244 238 211 202 204 207 217 206 198 167 143 150 145 136 125 117 106 93 80 71 64 61 60 57 54 56 56
238 234 232 228 227 230 238 238 232 223 230 239 237 225 213 202 205 214 212 220 203 157 164 165 159 148 139 132 119 104 92 81 71 63 56 50 52 53
239 237 234 231 229 230 230 232 235 232 225 237 235 217 212 204 216 216 211 207 223 195 174 170 165 164 155 151 144 135 129 119 103 84 66 60 54 46
239 237 235 234 239 240 244 231 228 232 229 231 230 223 217 206 218 224 224 212 207 217 196 186 181 185 175 172 170 160 155 151 144 132 113 97 75 54
242 240 234 223 223 226 244 248 243 236 239 240 234 231 226 222 220 229 224 217 210 196 225 217 211 202 181 161 140 155 161 165 171 171 162 153 141 121
242 240 241 229 217 225 220 226 234 243 248 251 250 246 233 222 223 221 220 230 236 196 219 227 210 208 184 126 140 158 166 176 186 190 186 182 181 184
238 235 237 237 222 223 224 223 228 228 232 236 247 245 245 238 226 228 220 214 215 204 215 234 210 216 199 157 157 172 177 182 188 192 192 194 200 211
235 234 234 231 210 213 223 223 226 227 212 216 241 234 228 222 233 229 213 213 213 196 203 237 218 213 207 187 164 176 183 186 191 194 193 196 223 227
232 230 223 232 207 202 223 223 225 227 219 199 205 206 206 197 208 228 226 223 221 204 181 224 218 212 212 193 181 179 189 189 195 196 194 195 216 246
236 232 218 197 206 209 226 229 229 229 219 211 204 205 206 204 206 209 230 239 234 222 178 204 220 216 228 203 193 196 200 190 192 192 192 190 199 236
249 246 223 181 205 214 223 232 222 224 223 216 215 211 206 204 199 202 212 233 244 239 201 211 229 225 234 230 211 200 204 197 202 207 196 182 197 204
261 282 265 207 211 215 219 220 218 221 219 218 221 221 214 203 195 187 188 203 211 215 201 217 234 231 242 243 231 214 215 203 207 211 204 204 208 207
244 231 210 213 223 226 209 210 222 226 226 224 222 222 214 198 201 198 196 195 201 197 193 207 227 235 240 240 243 230 221 216 207 216 225 222 214 216
264 251 242 222 221 219 216 211 215 215 222 231 229 217 212 209 206 201 205 207 209 207 198 194 204 218 232 247 241 234 232 231 213 199 223 229 214 212
235 237 236 232 228 226 221 211 211 215 222 227 224 222 217 210 208 206 207 213 213 211 210 201 199 204 212 206 235 241 238 235 222 206 229 237 226 204
225 236 236 235 232 228 226 221 217 211 212 218 219 219 222 216 211 212 212 215 216 215 214 206 207 216 224 222 191 213 239 238 229 220 223 236 240 218
232 235 236 238 235 228 225 225 223 215 212 215 215 216 217 217 213 215 214 216 218 217 216 211 212 223 239 253 244 207 207 231 231 229 230 237 228 179
231 232 234 236 233 228 228 227 229 227 221 220 215 214 216 216 214 215 214 196 221 224 222 219 203 216 240 239 236 218 183 186 214 241 244 245 237 221
236 233 234 239 232 228 230 229 228 226 223 225 219 216 213 215 214 215 218 216 219 225 231 221 193 210 228 234 236 222 202 184 185 196 217 248 257 257
237 236 231 228 227 223 226 227 229 225 221 226 226 226 222 217 217 217 218 225 227 222 221 217 211 218 226 231 234 226 209 210 206 198 195 179 185 202